Change the Weather History Date:

Saturday, April 14, 2012

  Actual Average Record
Temperature  
Mean Temperature 57 °F 62 °F  
Max Temperature 75 °F 73 °F 88 °F (1977)
Min Temperature 39 °F 50 °F 31 °F (1950)
Degree Days  
Heating Degree Days 8 5  
Month to date heating degree days 108 92  
Since 1 July heating degree days 2064 2607  
Cooling Degree Days 0 2  
Month to date cooling degree days 7 18  
Year to date cooling degree days 65 32  
Growing Degree Days 7 (Base 50)    
Moisture  
Dew Point 43 °F    
Average Humidity 61    
Maximum Humidity 92    
Minimum Humidity 29    
Precipitation  
Precipitation 0.00 in 0.10 in 1.95 in (2009)
Month to date precipitation 1.27 1.48  
Year to date precipitation 9.05 13.55  
Snow  
Snow 0.00 in - - ()
Month to date snowfall 0.0  
Since 1 July snowfall T  
Snow Depth 0.00 in    
Sea Level Pressure  
Sea Level Pressure 30.30 in    
Wind  
Wind Speed 7 mph (SSW)    
Max Wind Speed 18 mph    
Max Gust Speed 24 mph    
Visibility 10 miles    
Events Fog    
T = Trace of Precipitation, MM = Missing Value Source: NWS Daily Summary

Daily Weather History Graph

Daily Weather History Graph

Search for Another Location

Airport or City:

Trip Planner

Search our weather history database for the weather conditions in past years. The results will help you decide how hot, cold, wet, or windy it might be!

Date:

Astronomy

Apr. 14, 2012 Rise Set
Actual Time 6:36 AM EDT 7:40 PM EDT
Civil Twilight 6:10 AM EDT 8:06 PM EDT
Nautical Twilight 5:39 AM EDT 8:37 PM EDT
Astronomical Twilight 5:07 AM EDT 9:09 PM EDT
Moon 2:44 AM EDT (4/14) 1:44 PM EDT (4/14)
Length of Visible Light 13h 55m
Length of Day
13h 03m
Last Quarter, 37% of the Moon is Illuminated
Apr 14
Last Quarter
Apr 21
New
Apr 29
First Quarter
May 5
Full
May 12
Last Quarter

Hourly Weather History & Observations

Time (EDT) Temp. Windchill Dew Point Humidity Pressure Visibility Wind Dir Wind Speed Gust Speed Precip Events Conditions
12:54 AM 44.1 °F - 39.9 °F 85% 30.31 in 10.0 mi Calm Calm - N/A   Clear
1:54 AM 44.1 °F - 39.9 °F 85% 30.30 in 10.0 mi Calm Calm - N/A   Clear
2:54 AM 41.0 °F - 37.9 °F 89% 30.29 in 10.0 mi Calm Calm - N/A   Clear
3:54 AM 42.1 °F - 39.0 °F 89% 30.29 in 9.0 mi Calm Calm - N/A   Clear
4:54 AM 39.9 °F - 37.0 °F 89% 30.31 in 9.0 mi Calm Calm - N/A   Clear
5:54 AM 39.9 °F - 37.0 °F 89% 30.34 in 9.0 mi Calm Calm - N/A   Clear
6:54 AM 39.9 °F 37.8 °F 37.0 °F 89% 30.36 in 10.0 mi SSW 3.5 mph - N/A Fog Shallow Fog
7:54 AM 48.0 °F - 45.0 °F 89% 30.38 in 10.0 mi Calm Calm - N/A   Clear
8:54 AM 57.0 °F - 46.9 °F 69% 30.40 in 10.0 mi Calm Calm - N/A   Clear
9:54 AM 64.0 °F - 46.9 °F 54% 30.37 in 10.0 mi West 3.5 mph - N/A   Clear
10:54 AM 69.1 °F - 41.0 °F 36% 30.36 in 10.0 mi SW 10.4 mph - N/A   Clear
11:54 AM 71.1 °F - 41.0 °F 34% 30.35 in 10.0 mi West 8.1 mph - N/A   Clear
12:54 PM 73.0 °F - 39.9 °F 30% 30.32 in 10.0 mi WSW 10.4 mph 17.3 mph N/A   Clear
1:54 PM 73.9 °F - 41.0 °F 30% 30.31 in 10.0 mi WSW 8.1 mph 17.3 mph N/A   Clear
2:54 PM 75.0 °F - 43.0 °F 32% 30.28 in 10.0 mi South 12.7 mph 18.4 mph N/A   Clear
3:54 PM 73.0 °F - 39.9 °F 30% 30.26 in 10.0 mi South 12.7 mph 20.7 mph N/A   Clear
4:54 PM 72.0 °F - 37.9 °F 29% 30.25 in 10.0 mi South 16.1 mph 24.2 mph N/A   Clear
5:54 PM 70.0 °F - 39.0 °F 32% 30.24 in 10.0 mi South 10.4 mph 20.7 mph N/A   Clear
6:54 PM 66.9 °F - 42.1 °F 40% 30.24 in 10.0 mi SSW 12.7 mph 21.9 mph N/A   Clear
7:54 PM 64.0 °F - 46.0 °F 52% 30.25 in 10.0 mi South 6.9 mph - N/A   Clear
8:54 PM 63.0 °F - 51.1 °F 65% 30.25 in 10.0 mi SSW 10.4 mph - N/A   Clear
9:54 PM 63.0 °F - 52.0 °F 67% 30.26 in 10.0 mi SSW 11.5 mph - N/A   Clear
10:54 PM 62.1 °F - 53.1 °F 72% 30.27 in 10.0 mi SSW 8.1 mph - N/A   Clear
11:54 PM 60.1 °F - 53.1 °F 78% 30.26 in 10.0 mi SSW 5.8 mph - N/A   Clear